Showing default

ASTROSAT, 40930

Orbit data source: Space-Track

ASTROSAT, 40930 is a payload satellite owned by ISRO (IN) in LEO that was launched on Mon, 28 Sep 2015 UTC via a PSLV-XL launch vehicle from the Sirharikota (SRI). Payloads include a variety of satellites, spacecraft, and rockets equipped with specific instruments for various scientific and technological missions. These include communications satellites like Starlink; space stations such as the ISS; scientific satellites like the Hubble; Earth observation satellites from companies like Planet Labs, Umbra, and HawkEye 360; GPS; miniature CubeSats for education and research; and military/defense satellites.

Not visible in the next 10 days
ASTROSAT details
Identifier
40930, 2015-052A
Orbit
LEO
Last TLE update16 hours ago
Origin
Flag of INISRO (IN / IND)
ManufacturerISRO SAC/Banga
MissionOperational Civil Astronomy
Bus & MotorASTROSAT, AOCS
Mass1,513 kg wet, 1,470 kg dry
Launch date (UTC)
2015-09-28 (9 years ago)
Launch vehicle
PSLV-XL
Launch site
Sirharikota (SRI)
Object type
Payload
Rocket body
Debris
Shape & HBRBox + 2 Pan, 7 m
Radar Cross Section5.447 m², Large (>1 m²)

Expand to show TLE details & history

TLE from 16 hours ago
0 ASTROSAT
1 40930U 15052A   24361.28222732  .00004083  00000-0  43497-3 0  9998
2 40930   5.9977  62.2791 0009056 280.2836  79.6271 14.80591772499919
Epoch: 2024-12-26T06:46Z
Definitive object data (Epoch: 2024-12-26T06:46:24.44Z)
Latitude
Longitude-134.58659°
Altitude623.26 km
Speed7.551 km/s
True Right ascension04h 09m 06s
True Declination0° 00' 00"
Sunlit
Object was in full shadow at TLE epoch
Visualization TLE readout
Latitude-5.94512°
Longitude140.37096°
Altitude619.102 km
Speed7.556 km/s
Apparent Right ascension23h 38m 35s
Apparent Declination-65° 16' 04"
Sunlit
Object is in daylight
Visualization observer readout
Local Sidereal Time21:57:57
Azimuth169.281° S
Elevation-16.999°
Doppler factor1
Orbital elements
Apogee altitude639.999 km
Perigee altitude627.299 km
Semi-major axis7,011.786 km
Eccentricity0.0009056
Inclination5.9977°
RAAN62.2791°
Arg. of periapsis280.2836°
True anomaly79.7292°
Mean anomaly79.6271°
Eccentric anomaly79.67815°
Mean motion3.69658 °/min
BSTAR0.00043497
Orbital period97.39 mins
Loading maneuver chart data...
Loading historical data...
Loading historical data...
Loading historical data...
Loading historical data...
Loading historical data...
Loading historical data...
Loading historical data...

ASTROSAT Visibility forecast

Observer location: undefined°, undefined

ASTROSAT is not visible in the next 10 days
Span
Click to sort rows by Start time (UTC) header in descending order
Start Az.
Max El. time (UTC)
Max El. Az.
Max El.
End time (UTC)
End Az.
|